This is the latest recevied weather packets stored in our database for station/object HS5HBQ-1. If no packets are shown the sender has not sent any weather packets the latest 10 day(s).
| Time | Temp. | Humidity | Pressure | Rain* | Wind** | Luminosity | Snow |
|---|---|---|---|---|---|---|---|
| 1777201750 | 33.33° C | 47% | 971 hPa | - | - | 0 W/m² | - |
| 1777201126 | 33.33° C | 47% | 970 hPa | - | - | 0 W/m² | - |
| 1777200501 | 33.33° C | 44% | 970 hPa | - | - | 0 W/m² | - |
| 1777199877 | 33.33° C | 44% | 970 hPa | - | - | 0 W/m² | - |
| 1777199253 | 32.78° C | 44% | 970 hPa | - | - | 0 W/m² | - |
| 1777198629 | 33.33° C | 43% | 970 hPa | - | - | 0 W/m² | - |
| 1777198005 | 33.33° C | 42% | 970 hPa | - | - | 0 W/m² | - |
| 1777197381 | 33.89° C | 40% | 970 hPa | - | - | 0 W/m² | - |
| 1777196756 | 33.33° C | 41% | 970 hPa | - | - | 0 W/m² | - |
| 1777196132 | 32.78° C | 41% | 970 hPa | - | - | 0 W/m² | - |
| 1777195508 | 32.78° C | 41% | 971 hPa | - | - | 0 W/m² | - |
| 1777194884 | 32.22° C | 39% | 971 hPa | - | - | 0 W/m² | - |
| 1777194259 | 30.56° C | 33% | 971 hPa | - | - | 0 W/m² | - |
| 1777193635 | 30.56° C | 34% | 971 hPa | - | - | 0 W/m² | - |
| 1777193011 | 31.11° C | 35% | 971 hPa | - | - | 0 W/m² | - |
| 1777192387 | 31.11° C | 37% | 972 hPa | - | - | 0 W/m² | - |
| 1777191763 | 31.67° C | 39% | 972 hPa | - | - | 0 W/m² | - |
| 1777191139 | 31.67° C | 40% | 972 hPa | - | - | 0 W/m² | - |
| 1777190515 | 32.78° C | 45% | 972 hPa | - | - | 0 W/m² | - |
| 1777189890 | 32.22° C | 48% | 973 hPa | - | - | 0 W/m² | - |
| 1777189266 | 32.22° C | 47% | 973 hPa | - | - | 0 W/m² | - |
| 1777188641 | 32.78° C | 45% | 973 hPa | - | - | 0 W/m² | - |
| 1777188017 | 33.89° C | 43% | 973 hPa | - | - | 0 W/m² | - |
| 1777187393 | 33.89° C | 43% | 973 hPa | - | - | 0 W/m² | - |
| 1777186768 | 33.89° C | 43% | 973 hPa | - | - | 0 W/m² | - |
* Rain since midnight (hover to see other rain measurements)
** Current wind speed in m/s (hover to see current wind gust speed)